User: anonymous   Login
Location: Unspecified
(0.0000°N, 0.0000°E)
Time: 16:38:13
(UTC+00:00)
Language:

AEHF 3 (USA 246) - Orbit

View from above orbital plane
View from above orbital plane
View from above satellite
View from above satellite

Ground track
Ground track

The orbit data is extracted from the following two-line orbital elements,

1 39256U 13050A   14317.12897452 0.00000000  00000-0  00000-0 0    01
2 39256   4.2844 303.5451 0006073   4.7450 355.2870  1.00270000    06
Epoch (UTC): 13 November 2014 03:05:43
Eccentricity: 0.0006073
inclination: 4.2844°
perigee height: 35761 km
apogee height: 35812 km
right ascension of ascending node: 303.5451°
argument of perigee: 4.7450°
revolutions per day: 1.00270000
mean anomaly at epoch: 355.2870°
orbit number at epoch: 0

The dashed part of the orbit path shows where the satellite is in the earth's shadow,  

DLR